Location: Newark
(44.3248°N, 23.7839°E)
Time: 06:22:16
(UTC+00:00)

SO-50 - Visible Passes

Search period start: 22 April 2024 00:00
Search period end: 02 May 2024 00:00
Orbit: 611 x 655 km, 64.6° (Epoch: 21 April)

Date Brightness Start Highest point End Pass type
(mag) Time Alt. Az. Time Alt. Az. Time Alt. Az.
22 Apr ? 18:28:03 10° N 18:29:52 12° NNE 18:31:40 10° NE visible
22 Apr ? 20:06:41 10° NNW 20:10:40 53° NNE 20:10:40 53° NNE visible
22 Apr ? 21:47:52 10° WNW 21:48:05 11° WNW 21:48:05 11° WNW visible
23 Apr ? 18:49:00 10° N 18:52:19 20° NE 18:54:35 14° ENE visible
23 Apr ? 20:28:33 10° NW 20:32:00 50° WNW 20:32:00 50° WNW visible
24 Apr ? 19:10:25 10° NNW 19:14:33 35° NE 19:15:56 28° E visible
24 Apr ? 20:50:48 10° NW 20:53:22 25° W 20:53:22 25° W visible
25 Apr ? 17:53:04 10° N 17:55:32 14° NNE 17:58:00 10° ENE visible
25 Apr ? 19:32:05 10° NNW 19:36:34 73° NE 19:37:19 57° ESE visible
25 Apr ? 21:14:00 10° W 21:14:45 12° W 21:14:45 12° W visible
26 Apr ? 18:14:13 10° NNW 18:17:53 24° NE 18:21:19 11° E visible
26 Apr ? 19:54:02 10° NW 19:58:21 51° WSW 19:58:44 49° SW visible
27 Apr ? 18:35:42 10° NNW 18:40:00 45° NE 18:42:46 20° ESE visible
27 Apr ? 20:16:28 10° WNW 20:19:57 23° WSW 20:20:12 23° WSW visible
28 Apr ? 18:57:26 10° NW 19:01:55 86° SW 19:04:15 28° SSE visible
29 Apr ? 19:19:29 10° NW 19:23:37 38° WSW 19:25:48 23° S visible
30 Apr ? 18:00:55 10° NNW 18:05:20 58° NE 18:09:43 10° SE visible
30 Apr ? 19:42:13 10° WNW 19:45:07 17° WSW 19:47:23 12° SW visible
01 May ? 18:22:44 10° NW 18:27:09 65° WSW 18:31:32 10° SSE visible
